Regional Weather Roundup
Issued by NWS

Home | Current Version | Previous Version | Graphics & Text | Print | Product List | Glossary On
Versions: 1 2 3 4 5 6 7 8 9 10 11 12 13 14 15 16 17 18 19 20 21 22 23 24 25 26 27 28 29 30 31 32 33 34 35 36 37 38 39 40 41 42 43 44 45 46 47 48 49 50
750
ASUS45 KBOI 231210
RWRID

IDAHO REGIONAL WEATHER ROUNDUP
NATIONAL WEATHER SERVICE BOISE ID
500 AM MST MON JAN 23 2017

NOTE: "FAIR" INDICATES FEW OR NO CLOUDS BELOW 12000 FEET
WITH NO SIGNIFICANT WEATHER AND/OR OBSTRUCTIONS TO VISIBILITY

IDZ012-014-231300-
SOUTHWEST IDAHO


CITY           SKY/WX    TMP DP  RH WIND       PRES   REMARKS
BOISE          CLOUDY    29  27  92 CALM      29.58F
CALDWELL       CLOUDY    28  27  96 W9        29.62R FOG     WCI  19
MOUNTAIN HOME  LGT SNOW  31  31 100 N8        29.55F FOG     WCI  24
$$

IDZ016-017-231300-
SOUTHCENTRAL IDAHO


CITY           SKY/WX    TMP DP  RH WIND       PRES   REMARKS
BURLEY         CLOUDY    31  28  89 CALM      29.48F
JEROME         CLOUDY    31  29  92 NE21      29.51F WCI  18
TWIN FALLS     LGT SNOW  31  29  92 CALM      29.50F FOG
$$

IDZ019>023-231300-
SOUTHEAST IDAHO


CITY           SKY/WX    TMP DP  RH WIND       PRES   REMARKS
IDAHO FALLS    CLOUDY    30  27  88 NE8       29.58F WCI  22
POCATELLO      CLOUDY    31  28  89 NE8       29.55F WCI  23
REXBURG        CLOUDY    27  26  96 NE5       29.59F WCI  22
$$

IDZ006-010-011-018-031-032-231300-
CENTRAL IDAHO MOUNTAINS


CITY           SKY/WX    TMP DP  RH WIND       PRES   REMARKS
MCCALL         CLOUDY    12   8  84 N3        29.53F
HAILEY         CLOUDY    27  21  80 NW9       29.54F WCI  17
STANLEY          N/A     11   7  84 SE5       29.55F WCI   3
SALMON         CLOUDY     7   1  78 CALM      29.66S VSB 1/4
CHALLIS        CLOUDY    14  13  95 CALM      29.60F
$$

IDZ002-004-006-007-026-231300-
NORTHERN IDAHO


CITY           SKY/WX    TMP DP  RH WIND       PRES   REMARKS
LEWISTON       PTCLDY    29  27  92 E3        29.68S FOG
LOWELL           N/A     32  31  96 CALM      29.72F
COEUR D`ALENE  CLOUDY    32  31  96 W5        29.68R FOG     WCI  27
MULLAN PASS    FOG       23  21  92 SW7       29.55R VSB 3/4 WCI  15
$$




USA.gov is the U.S. government's official web portal to all federal, state and local government web resources and services.